When you browse on this site, cookies collect data to enhance your experience and personalize the content and advertising you see.
Visit our Privacy Policy to learn more. By continuing to use the site, you agree to this use of cookies and data.
  • In Latvia
  • List of Countries
  • For 7 days
  • Water Temperature
  • Weather Map
  • Weather Widgets
  • user-avatar
    Login

    Hourly Weather Zabelevica

    Today, 25 February, Tuesday

    Time Temperature Precipitation Wind Pressure Humidity
    00:00 -2°C° 0 mm 3 mps 737 mmHg 75%
    01:00 -2°C° 0 mm 3 mps 737 mmHg 77%
    02:00 -2°C° 0 mm 3 mps 737 mmHg 79%
    03:00 -2°C° 0 mm 3 mps 736 mmHg 81%
    04:00 -2°C° 0 mm 2 mps 736 mmHg 83%
    05:00 -2°C° 0 mm 2 mps 736 mmHg 84%
    06:00 -3°C° 0 mm 2 mps 736 mmHg 84%
    07:00 -3°C° 0 mm 2 mps 736 mmHg 85%
    08:00 -3°C° 0 mm 2 mps 736 mmHg 85%
    09:00 -2°C° 0 mm 2 mps 736 mmHg 78%
    10:00 -1°C° 0 mm 2 mps 736 mmHg 70%
    11:00 +1°C° 0 mm 2 mps 736 mmHg 62%
    12:00 +2°C° 0 mm 2 mps 735 mmHg 59%
    13:00 +2°C° 0 mm 2 mps 735 mmHg 56%
    14:00 +3°C° 0 mm 2 mps 734 mmHg 53%
    15:00 +2°C° 0 mm 2 mps 734 mmHg 57%
    16:00 +2°C° 0 mm 2 mps 733 mmHg 61%
    17:00 +1°C° 0 mm 2 mps 733 mmHg 64%
    18:00 0°C° 0.2 mm 3 mps 732 mmHg 75%
    19:00 -2°C° 0.2 mm 4 mps 732 mmHg 85%
    20:00 -2°C° 0.2 mm 4 mps 731 mmHg 96%
    21:00 -2°C° 0.5 mm 4 mps 730 mmHg 96%
    22:00 -1°C° 0.5 mm 4 mps 730 mmHg 96%
    23:00 -1°C° 0.5 mm 4 mps 729 mmHg 96%

    Tomorrow, 26 February, Wednesday

    Time Temperature Precipitation Wind Pressure Humidity
    00:00 0°C° 0.1 mm 3 mps 728 mmHg 96%
    01:00 +1°C° 0.1 mm 3 mps 728 mmHg 97%
    02:00 +1°C° 0.1 mm 3 mps 727 mmHg 97%
    03:00 +1°C° 0.3 mm 3 mps 727 mmHg 97%
    04:00 +2°C° 0.3 mm 2 mps 726 mmHg 97%
    05:00 +2°C° 0.3 mm 2 mps 726 mmHg 97%
    06:00 +2°C° 1.5 mm 2 mps 725 mmHg 97%
    07:00 +1°C° 1.5 mm 2 mps 725 mmHg 98%
    08:00 +1°C° 1.5 mm 2 mps 725 mmHg 98%
    09:00 +1°C° 0.2 mm 2 mps 725 mmHg 96%
    10:00 +1°C° 0.2 mm 2 mps 725 mmHg 93%
    11:00 +2°C° 0.2 mm 2 mps 726 mmHg 91%
    12:00 +1°C° 0 mm 3 mps 726 mmHg 89%
    13:00 +2°C° 0 mm 3 mps 726 mmHg 86%
    14:00 +2°C° 0 mm 3 mps 727 mmHg 83%
    15:00 +2°C° 0 mm 3 mps 727 mmHg 85%
    16:00 +2°C° 0 mm 2 mps 727 mmHg 86%
    17:00 +2°C° 0 mm 2 mps 727 mmHg 87%
    18:00 +2°C° 0 mm 1 mps 727 mmHg 89%
    19:00 +2°C° 0 mm 1 mps 727 mmHg 90%
    20:00 +2°C° 0 mm 1 mps 728 mmHg 92%
    21:00 +1°C° 0 mm 1 mps 728 mmHg 92%
    22:00 +1°C° 0 mm 1 mps 728 mmHg 91%
    23:00 +1°C° 0 mm 1 mps 728 mmHg 91%

    Day after tomorrow, 27 February, Thursday

    Time Temperature Precipitation Wind Pressure Humidity
    00:00 +1°C° 0 mm 1 mps 728 mmHg 91%
    01:00 +1°C° 0 mm 1 mps 728 mmHg 92%
    02:00 +1°C° 0 mm 1 mps 728 mmHg 92%
    03:00 +1°C° 0 mm 1 mps 728 mmHg 92%
    04:00 +1°C° 0 mm 1 mps 727 mmHg 93%
    05:00 +1°C° 0 mm 1 mps 727 mmHg 93%
    06:00 +1°C° 0 mm 1 mps 727 mmHg 93%
    07:00 -1°C° 0 mm 2 mps 727 mmHg 94%
    08:00 -1°C° 0 mm 2 mps 727 mmHg 94%
    09:00 +1°C° 0.1 mm 2 mps 727 mmHg 93%
    10:00 +1°C° 0.1 mm 2 mps 727 mmHg 92%
    11:00 +2°C° 0.1 mm 2 mps 727 mmHg 91%
    12:00 +2°C° 0.1 mm 2 mps 727 mmHg 89%
    13:00 +2°C° 0.1 mm 2 mps 727 mmHg 87%
    14:00 +3°C° 0.1 mm 2 mps 727 mmHg 84%
    15:00 +2°C° 0.2 mm 2 mps 727 mmHg 85%
    16:00 0°C° 0.2 mm 3 mps 727 mmHg 85%
    17:00 0°C° 0.2 mm 3 mps 727 mmHg 86%
    18:00 -1°C° 0 mm 3 mps 727 mmHg 86%
    19:00 -1°C° 0 mm 2 mps 727 mmHg 85%
    20:00 -2°C° 0 mm 2 mps 727 mmHg 84%
    21:00 -2°C° 0 mm 3 mps 727 mmHg 85%
    22:00 -2°C° 0 mm 3 mps 728 mmHg 85%
    23:00 -2°C° 0 mm 3 mps 728 mmHg 85%

    28 February, Friday

    Time Temperature Precipitation Wind Pressure Humidity
    00:00 -4°C° 0 mm 3 mps 728 mmHg 85%
    01:00 -4°C° 0 mm 4 mps 728 mmHg 84%
    02:00 -4°C° 0 mm 4 mps 728 mmHg 84%
    03:00 -4°C° 0 mm 4 mps 729 mmHg 84%
    04:00 -4°C° 0 mm 4 mps 729 mmHg 85%
    05:00 -4°C° 0 mm 4 mps 729 mmHg 85%
    06:00 -4°C° 0 mm 4 mps 730 mmHg 81%
    07:00 -4°C° 0 mm 4 mps 730 mmHg 76%
    08:00 -4°C° 0 mm 4 mps 731 mmHg 72%
    09:00 -3°C° 0 mm 4 mps 731 mmHg 68%
    10:00 -3°C° 0 mm 4 mps 731 mmHg 64%
    11:00 -2°C° 0 mm 4 mps 732 mmHg 60%
    12:00 -2°C° 0 mm 4 mps 732 mmHg 58%
    13:00 -2°C° 0 mm 4 mps 733 mmHg 56%
    14:00 -1°C° 0 mm 4 mps 733 mmHg 55%
    15:00 -2°C° 0 mm 4 mps 733 mmHg 58%
    16:00 -2°C° 0 mm 3 mps 734 mmHg 61%
    17:00 -2°C° 0 mm 2 mps 734 mmHg 64%
    18:00 -3°C° 0 mm 2 mps 734 mmHg 69%
    19:00 -3°C° 0 mm 2 mps 735 mmHg 74%
    20:00 -2°C° 0 mm 1 mps 735 mmHg 79%
    21:00 -2°C° 0 mm 1 mps 735 mmHg 79%
    22:00 -4°C° 0 mm 2 mps 735 mmHg 79%
    23:00 -4°C° 0 mm 2 mps 735 mmHg 79%

    29 February, Saturday

    Time Temperature Precipitation Wind Pressure Humidity
    00:00 -4°C° 0 mm 2 mps 735 mmHg 80%
    01:00 -3°C° 0 mm 2 mps 735 mmHg 80%
    02:00 -3°C° 0 mm 2 mps 735 mmHg 80%
    03:00 -4°C° 0.2 mm 3 mps 735 mmHg 84%
    04:00 -4°C° 0.2 mm 3 mps 735 mmHg 88%
    05:00 -4°C° 0.2 mm 3 mps 735 mmHg 92%
    06:00 -4°C° 0.1 mm 3 mps 736 mmHg 89%
    07:00 -5°C° 0.1 mm 3 mps 736 mmHg 87%
    08:00 -5°C° 0.1 mm 3 mps 736 mmHg 85%
    09:00 -4°C° 0.1 mm 3 mps 736 mmHg 84%
    10:00 -4°C° 0.1 mm 4 mps 736 mmHg 84%
    11:00 -3°C° 0.1 mm 4 mps 736 mmHg 84%
    12:00 -3°C° 0.2 mm 4 mps 737 mmHg 83%
    13:00 -2°C° 0.2 mm 4 mps 737 mmHg 83%
    14:00 -2°C° 0.2 mm 4 mps 737 mmHg 82%
    15:00 -2°C° 0.2 mm 4 mps 737 mmHg 85%
    16:00 -3°C° 0.2 mm 4 mps 738 mmHg 88%
    17:00 -2°C° 0.2 mm 3 mps 738 mmHg 91%
    18:00 -2°C° 0.1 mm 3 mps 738 mmHg 92%
    19:00 -2°C° 0.1 mm 3 mps 739 mmHg 93%
    20:00 -4°C° 0.1 mm 3 mps 739 mmHg 93%
    21:00 -4°C° 0 mm 3 mps 740 mmHg 91%
    22:00 -4°C° 0 mm 3 mps 740 mmHg 89%
    23:00 -4°C° 0 mm 3 mps 740 mmHg 87%

    1 March, Sunday

    Time Temperature Precipitation Wind Pressure Humidity
    00:00 -4°C° 0 mm 3 mps 741 mmHg 87%
    01:00 -5°C° 0 mm 3 mps 741 mmHg 88%
    02:00 -4°C° 0 mm 2 mps 741 mmHg 88%
    03:00 -4°C° 0 mm 2 mps 742 mmHg 88%
    04:00 -3°C° 0 mm 1 mps 742 mmHg 88%
    05:00 -3°C° 0 mm 1 mps 742 mmHg 88%
    06:00 -3°C° 0 mm 1 mps 742 mmHg 87%
    07:00 -3°C° 0 mm 1 mps 743 mmHg 85%
    08:00 -3°C° 0 mm 1 mps 743 mmHg 84%
    09:00 -3°C° 0 mm 2 mps 743 mmHg 78%
    10:00 -2°C° 0 mm 2 mps 743 mmHg 72%
    11:00 -1°C° 0 mm 2 mps 743 mmHg 66%
    12:00 -1°C° 0 mm 3 mps 743 mmHg 65%
    13:00 0°C° 0 mm 3 mps 743 mmHg 65%
    14:00 -1°C° 0 mm 4 mps 742 mmHg 64%
    15:00 -1°C° 0 mm 4 mps 742 mmHg 66%
    16:00 -2°C° 0 mm 4 mps 742 mmHg 67%
    17:00 -2°C° 0 mm 4 mps 741 mmHg 69%
    18:00 -2°C° 0 mm 4 mps 741 mmHg 67%
    19:00 -2°C° 0 mm 4 mps 741 mmHg 65%
    20:00 -2°C° 0 mm 4 mps 741 mmHg 63%
    21:00 -4°C° 0.1 mm 5 mps 741 mmHg 70%
    22:00 -4°C° 0.1 mm 5 mps 741 mmHg 77%
    23:00 -4°C° 0.1 mm 5 mps 740 mmHg 84%
    Show more